| time (UTC) | temp F | wind direction | speed MPH | gust MPH | rain 1hr in | rain 24hr in | rain mn in | humidity % | barometer mb |
| 20260510153504 | 78 | 131 | 4.0 | 7.0 | 0.00 | 0.01 | 0.01 | 54 | 1013.6 |
| 20260510153004 | 79 | 70 | 2.0 | 3.0 | 0.00 | 0.01 | 0.01 | 54 | 1013.5 |
| 20260510152504 | 79 | 90 | 1.0 | 2.0 | 0.00 | 0.01 | 0.01 | 54 | 1013.6 |
| 20260510152005 | 78 | 277 | 0.0 | 3.0 | 0.00 | 0.01 | 0.01 | 57 | 1013.6 |
| 20260510151504 | 78 | 113 | 1.0 | 5.0 | 0.00 | 0.01 | 0.01 | 56 | 1013.6 |
| 20260510151003 | 77 | 199 | 2.0 | 5.0 | 0.00 | 0.01 | 0.01 | 56 | 1013.7 |
| 20260510150504 | 77 | 155 | 1.0 | 5.0 | 0.00 | 0.01 | 0.01 | 57 | 1013.8 |
| 20260510150004 | 77 | 2 | 1.0 | 3.0 | 0.00 | 0.01 | 0.01 | 58 | 1013.8 |
| 20260510145504 | 77 | 262 | 0.0 | 5.0 | 0.00 | 0.01 | 0.01 | 59 | 1013.9 |
| 20260510145005 | 77 | 37 | 2.0 | 5.0 | 0.00 | 0.01 | 0.01 | 57 | 1013.9 |
| 20260510144505 | 77 | 45 | 1.0 | 3.0 | 0.00 | 0.01 | 0.01 | 58 | 1013.9 |
| 20260510143505 | 77 | 215 | 2.0 | 5.0 | 0.00 | 0.01 | 0.01 | 57 | 1013.8 |
| 20260510142504 | 76 | 130 | 0.0 | 3.0 | 0.00 | 0.01 | 0.01 | 61 | 1013.8 |
| 20260510142004 | 75 | 169 | 1.0 | 3.0 | 0.00 | 0.01 | 0.01 | 64 | 1013.7 |
| 20260510141504 | 74 | 20 | 1.0 | 3.0 | 0.00 | 0.01 | 0.01 | 64 | 1013.8 |
| 20260510141004 | 74 | 112 | 1.0 | 3.0 | 0.00 | 0.01 | 0.01 | 64 | 1013.7 |
| 20260510140005 | 73 | 19 | 0.0 | 5.0 | 0.00 | 0.01 | 0.01 | 65 | 1013.8 |
| 20260510135504 | 73 | 4 | 0.0 | 5.0 | 0.00 | 0.01 | 0.01 | 67 | 1013.9 |
| 20260510135004 | 73 | 31 | 2.0 | 3.0 | 0.00 | 0.01 | 0.01 | 66 | 1014.0 |
| 20260510134504 | 72 | 140 | 0.0 | 3.0 | 0.00 | 0.01 | 0.01 | 69 | 1013.9 |
| 20260510134004 | 72 | 55 | 1.0 | 5.0 | 0.00 | 0.01 | 0.01 | 71 | 1013.8 |
| 20260510133004 | 71 | 23 | 2.0 | 5.0 | 0.00 | 0.01 | 0.01 | 70 | 1013.9 |
| 20260510132503 | 71 | 1 | 2.0 | 5.0 | 0.00 | 0.01 | 0.01 | 70 | 1013.9 |
| 20260510132003 | 71 | 357 | 1.0 | 3.0 | 0.00 | 0.01 | 0.01 | 71 | 1014.0 |
| 20260510131504 | 71 | 19 | 0.0 | 3.0 | 0.00 | 0.01 | 0.01 | 74 | 1013.9 |
| 20260510131004 | 70 | 340 | 0.0 | 3.0 | 0.00 | 0.01 | 0.01 | 76 | 1013.9 |
| 20260510130004 | 70 | 306 | 0.0 | 3.0 | 0.00 | 0.01 | 0.01 | 78 | 1013.8 |
| 20260510125503 | 69 | 314 | 0.0 | 3.0 | 0.00 | 0.01 | 0.01 | 77 | 1013.7 |
| 20260510125003 | 70 | 22 | 2.0 | 3.0 | 0.00 | 0.01 | 0.01 | 77 | 1013.8 |
| 20260510124504 | 70 | 355 | 0.0 | 3.0 | 0.00 | 0.01 | 0.01 | 77 | 1013.6 |
| 20260510123504 | 70 | 304 | 0.0 | 1.0 | 0.00 | 0.01 | 0.01 | 77 | 1013.3 |
| 20260510123004 | 69 | 137 | 0.0 | 1.0 | 0.00 | 0.01 | 0.01 | 80 | 1013.2 |
| 20260510122504 | 68 | 138 | 0.0 | 1.0 | 0.00 | 0.01 | 0.01 | 81 | 1013.2 |
| 20260510122005 | 67 | 116 | 0.0 | 2.0 | 0.00 | 0.01 | 0.01 | 81 | 1013.1 |
| 20260510121504 | 67 | 32 | 0.0 | 2.0 | 0.00 | 0.01 | 0.01 | 82 | 1013.1 |
| 20260510121004 | 67 | 255 | 0.0 | 1.0 | 0.00 | 0.01 | 0.01 | 83 | 1013.1 |
| 20260510115506 | 65 | 144 | 0.0 | 1.0 | 0.00 | 0.01 | 0.01 | 90 | 1012.8 |
| 20260510115004 | 64 | 126 | 0.0 | 1.0 | 0.00 | 0.01 | 0.01 | 93 | 1012.8 |
| 20260510114504 | 63 | 116 | 0.0 | 1.0 | 0.00 | 0.01 | 0.01 | 94 | 1012.7 |
| 20260510114004 | 62 | 86 | 0.0 | 2.0 | 0.00 | 0.01 | 0.01 | 95 | 1012.7 |
| 20260510113504 | 61 | 214 | 0.0 | 2.0 | 0.00 | 0.01 | 0.01 | 96 | 1012.6 |
| 20260510113004 | 60 | 155 | 0.0 | 1.0 | 0.00 | 0.01 | 0.01 | 97 | 1012.5 |
| 20260510112504 | 59 | 131 | 0.0 | 0.0 | 0.00 | 0.01 | 0.01 | 97 | 1012.5 |
| 20260510112004 | 58 | 131 | 0.0 | 0.0 | 0.00 | 0.01 | 0.01 | 97 | 1012.5 |
| 20260510111505 | 57 | 112 | 0.0 | 0.0 | 0.00 | 0.01 | 0.01 | 97 | 1012.5 |
| 20260510111005 | 56 | 165 | 0.0 | 2.0 | 0.00 | 0.01 | 0.01 | 97 | 1012.4 |
| 20260510110504 | 56 | 165 | 0.0 | 2.0 | 0.00 | 0.01 | 0.01 | 97 | 1012.3 |
| 20260510110005 | 56 | 154 | 0.0 | 0.0 | 0.00 | 0.01 | 0.01 | 97 | 1012.3 |
| 20260510105503 | 56 | 154 | 0.0 | 0.0 | 0.00 | 0.01 | 0.01 | 97 | 1012.2 |
| 20260510105004 | 56 | 166 | 0.0 | 0.0 | 0.00 | 0.01 | 0.01 | 97 | 1012.1 |
| 20260510104504 | 55 | 167 | 0.0 | 0.0 | 0.00 | 0.01 | 0.01 | 97 | 1012.0 |
| 20260510104005 | 55 | 167 | 0.0 | 0.0 | 0.00 | 0.01 | 0.01 | 97 | 1011.9 |
| 20260510103503 | 55 | 167 | 0.0 | 0.0 | 0.00 | 0.01 | 0.01 | 97 | 1011.8 |
| 20260510103004 | 55 | 181 | 0.0 | 0.0 | 0.00 | 0.01 | 0.01 | 97 | 1011.8 |
| 20260510102504 | 55 | 181 | 0.0 | 0.0 | 0.00 | 0.01 | 0.01 | 97 | 1011.7 |
| 20260510102003 | 55 | 181 | 0.0 | 0.0 | 0.00 | 0.01 | 0.01 | 97 | 1011.7 |
| 20260510101004 | 55 | 169 | 0.0 | 0.0 | 0.00 | 0.01 | 0.01 | 96 | 1011.7 |
| 20260510095504 | 55 | 148 | 0.0 | 0.0 | 0.00 | 0.01 | 0.01 | 96 | 1011.3 |
| 20260510095005 | 55 | 148 | 0.0 | 0.0 | 0.00 | 0.01 | 0.01 | 96 | 1011.3 |
| 20260510094004 | 55 | 149 | 0.0 | 0.0 | 0.00 | 0.01 | 0.01 | 96 | 1011.3 |
| 20260510093504 | 55 | 165 | 0.0 | 0.0 | 0.00 | 0.01 | 0.01 | 96 | 1011.2 |
| 20260510093004 | 55 | 172 | 0.0 | 0.0 | 0.00 | 0.01 | 0.01 | 96 | 1011.1 |
| 20260510092504 | 55 | 173 | 0.0 | 1.0 | 0.00 | 0.01 | 0.01 | 95 | 1011.0 |
| 20260510092004 | 55 | 174 | 0.0 | 1.0 | 0.00 | 0.01 | 0.01 | 95 | 1011.0 |
| 20260510091503 | 56 | 152 | 0.0 | 1.0 | 0.00 | 0.01 | 0.01 | 95 | 1011.0 |
| 20260510090004 | 57 | 158 | 0.0 | 0.0 | 0.00 | 0.01 | 0.01 | 95 | 1010.7 |
| 20260510085504 | 57 | 157 | 0.0 | 0.0 | 0.00 | 0.01 | 0.01 | 94 | 1010.8 |
| 20260510084504 | 57 | 158 | 0.0 | 0.0 | 0.00 | 0.01 | 0.01 | 94 | 1010.6 |
| 20260510084004 | 58 | 158 | 0.0 | 1.0 | 0.00 | 0.01 | 0.01 | 94 | 1010.7 |
| 20260510083004 | 58 | 152 | 0.0 | 1.0 | 0.00 | 0.01 | 0.01 | 94 | 1010.6 |
| 20260510081504 | 59 | 158 | 0.0 | 1.0 | 0.00 | 0.01 | 0.01 | 92 | 1010.7 |
| 20260510081005 | 59 | 153 | 0.0 | 0.0 | 0.00 | 0.01 | 0.01 | 92 | 1010.6 |
| 20260510080504 | 59 | 153 | 0.0 | 0.0 | 0.00 | 0.01 | 0.01 | 92 | 1010.5 |
| 20260510080004 | 59 | 153 | 0.0 | 1.0 | 0.00 | 0.01 | 0.01 | 93 | 1010.5 |
| 20260510075504 | 60 | 153 | 0.0 | 1.0 | 0.00 | 0.01 | 0.01 | 93 | 1010.5 |
| 20260510075005 | 59 | 169 | 0.0 | 1.0 | 0.00 | 0.01 | 0.01 | 93 | 1010.4 |
| 20260510074504 | 59 | 139 | 0.0 | 1.0 | 0.00 | 0.01 | 0.01 | 94 | 1010.5 |
| 20260510074004 | 59 | 138 | 0.0 | 2.0 | 0.00 | 0.01 | 0.01 | 94 | 1010.5 |
| 20260510073504 | 59 | 139 | 1.0 | 2.0 | 0.00 | 0.01 | 0.01 | 95 | 1010.5 |
| 20260510073005 | 58 | 165 | 0.0 | 0.0 | 0.00 | 0.01 | 0.01 | 95 | 1010.4 |
| 20260510072504 | 58 | 136 | 0.0 | 0.0 | 0.00 | 0.01 | 0.01 | 95 | 1010.5 |
| 20260510072005 | 58 | 131 | 0.0 | 0.0 | 0.00 | 0.01 | 0.01 | 95 | 1010.6 |
| 20260510071505 | 57 | 129 | 0.0 | 0.0 | 0.00 | 0.01 | 0.01 | 96 | 1010.6 |
| 20260510071004 | 57 | 132 | 0.0 | 0.0 | 0.00 | 0.01 | 0.01 | 96 | 1010.6 |
| 20260510070004 | 57 | 134 | 0.0 | 1.0 | 0.00 | 0.01 | 0.01 | 96 | 1010.7 |
| 20260510065503 | 57 | 146 | 0.0 | 1.0 | 0.00 | 0.01 | 0.01 | 96 | 1010.7 |
| 20260510065005 | 57 | 146 | 0.0 | 1.0 | 0.00 | 0.01 | 0.01 | 96 | 1010.6 |
| 20260510064504 | 57 | 135 | 0.0 | 1.0 | 0.00 | 0.01 | 0.01 | 97 | 1010.5 |
| 20260510064005 | 56 | 135 | 0.0 | 1.0 | 0.00 | 0.01 | 0.01 | 97 | 1010.6 |
| 20260510063504 | 56 | 136 | 0.0 | 1.0 | 0.00 | 0.01 | 0.01 | 97 | 1010.6 |
| 20260510062504 | 56 | 153 | 0.0 | 0.0 | 0.00 | 0.01 | 0.01 | 97 | 1010.6 |
| 20260510062004 | 56 | 154 | 0.0 | 0.0 | 0.00 | 0.01 | 0.01 | 97 | 1010.6 |
| 20260510060504 | 56 | 155 | 0.0 | 1.0 | 0.00 | 0.01 | 0.01 | 97 | 1010.6 |
| 20260510060005 | 56 | 143 | 0.0 | 1.0 | 0.00 | 0.01 | 0.01 | 97 | 1010.8 |
| 20260510055503 | 56 | 141 | 0.0 | 0.0 | 0.00 | 0.01 | 0.01 | 97 | 1010.8 |
| 20260510055004 | 56 | 141 | 0.0 | 0.0 | 0.00 | 0.01 | 0.01 | 97 | 1010.9 |
| 20260510054504 | 56 | 141 | 0.0 | 0.0 | 0.00 | 0.01 | 0.01 | 97 | 1010.8 |
| 20260510054004 | 56 | 141 | 0.0 | 0.0 | 0.00 | 0.01 | 0.01 | 97 | 1010.8 |
| 20260510053504 | 56 | 141 | 0.0 | 0.0 | 0.00 | 0.01 | 0.01 | 97 | 1010.9 |
| 20260510053004 | 56 | 141 | 0.0 | 0.0 | 0.00 | 0.01 | 0.01 | 97 | 1010.8 |
| 20260510052504 | 56 | 141 | 0.0 | 0.0 | 0.00 | 0.01 | 0.01 | 97 | 1010.8 |
| 20260510052004 | 56 | 141 | 0.0 | 0.0 | 0.00 | 0.01 | 0.01 | 97 | 1010.8 |
| 20260510051504 | 56 | 141 | 0.0 | 0.0 | 0.00 | 0.01 | 0.01 | 97 | 1010.9 |
| 20260510051005 | 56 | 141 | 0.0 | 0.0 | 0.00 | 0.01 | 0.01 | 97 | 1010.9 |
| 20260510050505 | 56 | 141 | 0.0 | 0.0 | 0.00 | 0.01 | 0.01 | 97 | 1010.9 |
| 20260510045504 | 56 | 141 | 0.0 | 0.0 | 0.00 | 0.01 | 0.01 | 97 | 1010.9 |
| 20260510045005 | 56 | 141 | 0.0 | 0.0 | 0.00 | 0.01 | 0.01 | 97 | 1010.8 |
| 20260510043504 | 56 | 142 | 0.0 | 0.0 | 0.00 | 0.01 | 0.01 | 97 | 1010.9 |
| 20260510043004 | 56 | 142 | 0.0 | 0.0 | 0.00 | 0.01 | 0.01 | 96 | 1010.9 |
| 20260510042005 | 56 | 142 | 0.0 | 0.0 | 0.00 | 0.01 | 0.01 | 96 | 1010.9 |
| 20260510041504 | 56 | 142 | 0.0 | 0.0 | 0.00 | 0.01 | 0.01 | 96 | 1010.9 |
| 20260510041004 | 56 | 142 | 0.0 | 0.0 | 0.00 | 0.01 | 0.01 | 96 | 1010.9 |
| 20260510040505 | 57 | 142 | 0.0 | 0.0 | 0.00 | 0.01 | 0.01 | 96 | 1010.9 |
| 20260510040004 | 57 | 142 | 0.0 | 0.0 | 0.00 | 0.01 | 0.01 | 96 | 1010.9 |
| 20260510035504 | 57 | 142 | 0.0 | 0.0 | 0.00 | 0.01 | 0.01 | 96 | 1010.8 |
| 20260510035005 | 57 | 142 | 0.0 | 0.0 | 0.00 | 0.01 | 0.01 | 96 | 1010.8 |
| 20260510034504 | 57 | 142 | 0.0 | 0.0 | 0.00 | 0.01 | 0.01 | 96 | 1010.8 |
| 20260510034004 | 57 | 142 | 0.0 | 0.0 | 0.00 | 0.01 | 0.01 | 96 | 1010.5 |
| 20260510033505 | 58 | 142 | 0.0 | 0.0 | 0.00 | 0.01 | 0.01 | 96 | 1010.5 |
| 20260510033004 | 58 | 142 | 0.0 | 0.0 | 0.00 | 0.01 | 0.01 | 96 | 1010.6 |
| 20260510032504 | 58 | 142 | 0.0 | 0.0 | 0.00 | 0.01 | 0.01 | 96 | 1010.4 |
| 20260510032004 | 58 | 142 | 0.0 | 0.0 | 0.00 | 0.01 | 0.01 | 96 | 1010.3 |
| 20260510031505 | 58 | 142 | 0.0 | 0.0 | 0.00 | 0.01 | 0.01 | 96 | 1010.3 |
| 20260510031004 | 59 | 142 | 0.0 | 0.0 | 0.00 | 0.01 | 0.01 | 96 | 1010.3 |
| 20260510030505 | 59 | 142 | 0.0 | 0.0 | 0.00 | 0.01 | 0.01 | 96 | 1010.2 |
| 20260510030004 | 59 | 142 | 0.0 | 0.0 | 0.00 | 0.01 | 0.01 | 95 | 1010.3 |
| 20260510025004 | 59 | 142 | 0.0 | 0.0 | 0.00 | 0.01 | 0.01 | 95 | 1010.3 |
| 20260510024504 | 59 | 142 | 0.0 | 0.0 | 0.00 | 0.01 | 0.01 | 95 | 1010.3 |
| 20260510023505 | 59 | 142 | 0.0 | 0.0 | 0.00 | 0.01 | 0.01 | 95 | 1010.2 |
| 20260510023004 | 59 | 142 | 0.0 | 0.0 | 0.00 | 0.01 | 0.01 | 95 | 1010.3 |
| 20260510022504 | 59 | 142 | 0.0 | 0.0 | 0.00 | 0.01 | 0.01 | 95 | 1010.3 |
| 20260510022004 | 59 | 142 | 0.0 | 0.0 | 0.00 | 0.01 | 0.01 | 95 | 1010.3 |
| 20260510021505 | 60 | 142 | 0.0 | 0.0 | 0.00 | 0.01 | 0.01 | 94 | 1010.3 |
| 20260510021004 | 60 | 142 | 0.0 | 0.0 | 0.00 | 0.01 | 0.01 | 94 | 1010.4 |
| 20260510020504 | 60 | 142 | 0.0 | 0.0 | 0.00 | 0.01 | 0.01 | 94 | 1010.3 |
| 20260510020005 | 60 | 142 | 0.0 | 0.0 | 0.00 | 0.01 | 0.01 | 94 | 1010.4 |
| 20260510015003 | 60 | 142 | 0.0 | 0.0 | 0.00 | 0.01 | 0.01 | 93 | 1010.2 |
| 20260510014005 | 61 | 142 | 0.0 | 0.0 | 0.00 | 0.01 | 0.01 | 93 | 1010.2 |
| 20260510013504 | 61 | 142 | 0.0 | 0.0 | 0.00 | 0.01 | 0.01 | 93 | 1010.2 |
| 20260510013005 | 61 | 142 | 0.0 | 0.0 | 0.00 | 0.01 | 0.01 | 92 | 1010.2 |
| 20260510012505 | 61 | 142 | 0.0 | 0.0 | 0.00 | 0.01 | 0.01 | 92 | 1010.2 |
| 20260510012004 | 61 | 142 | 0.0 | 0.0 | 0.00 | 0.01 | 0.01 | 91 | 1010.1 |
| 20260510011504 | 61 | 142 | 0.0 | 0.0 | 0.00 | 0.01 | 0.01 | 90 | 1010.1 |
| 20260510011005 | 62 | 142 | 0.0 | 0.0 | 0.00 | 0.01 | 0.01 | 89 | 1010.1 |
| 20260510010504 | 62 | 142 | 0.0 | 0.0 | 0.00 | 0.01 | 0.01 | 89 | 1009.9 |
| 20260510010004 | 62 | 142 | 0.0 | 0.0 | 0.00 | 0.01 | 0.01 | 89 | 1010.0 |
| 20260510005503 | 62 | 142 | 0.0 | 0.0 | 0.00 | 0.01 | 0.01 | 89 | 1009.9 |
| 20260510004505 | 63 | 142 | 0.0 | 0.0 | 0.00 | 0.01 | 0.01 | 88 | 1009.9 |
| 20260510004004 | 63 | 142 | 0.0 | 0.0 | 0.00 | 0.01 | 0.01 | 87 | 1009.8 |
| 20260510003504 | 64 | 142 | 0.0 | 0.0 | 0.00 | 0.01 | 0.01 | 86 | 1009.8 |
| 20260510003004 | 64 | 142 | 0.0 | 0.0 | 0.00 | 0.01 | 0.01 | 84 | 1009.8 |
| 20260510002005 | 65 | 142 | 0.0 | 0.0 | 0.00 | 0.01 | 0.01 | 83 | 1009.7 |
| 20260510001504 | 65 | 142 | 0.0 | 0.0 | 0.00 | 0.01 | 0.01 | 82 | 1009.6 |
| 20260510001005 | 66 | 142 | 0.0 | 0.0 | 0.00 | 0.01 | 0.01 | 81 | 1009.6 |
| 20260510000504 | 66 | 142 | 0.0 | 0.0 | 0.00 | 0.01 | 0.01 | 81 | 1009.5 |
| 20260510000004 | 66 | 142 | 0.0 | 0.0 | 0.00 | 0.01 | 0.01 | 79 | 1009.5 |
| 20260509235504 | 67 | 142 | 0.0 | 0.0 | 0.00 | 0.01 | 0.01 | 77 | 1009.4 |
| 20260509234004 | 69 | 142 | 0.0 | 0.0 | 0.00 | 0.01 | 0.01 | 73 | 1009.2 |
| 20260509233504 | 69 | 142 | 0.0 | 1.0 | 0.00 | 0.01 | 0.01 | 71 | 1009.1 |
| 20260509233005 | 69 | 142 | 0.0 | 1.0 | 0.00 | 0.01 | 0.01 | 70 | 1009.2 |
| 20260509232004 | 70 | 141 | 0.0 | 2.0 | 0.00 | 0.01 | 0.01 | 72 | 1009.1 |
| 20260509231505 | 70 | 161 | 0.0 | 2.0 | 0.00 | 0.01 | 0.01 | 73 | 1009.0 |
| 20260509230004 | 71 | 227 | 0.0 | 2.0 | 0.00 | 0.01 | 0.01 | 73 | 1008.8 |
| 20260509225504 | 71 | 129 | 0.0 | 3.0 | 0.00 | 0.01 | 0.01 | 72 | 1008.8 |
| 20260509225004 | 71 | 158 | 1.0 | 3.0 | 0.00 | 0.01 | 0.01 | 73 | 1008.7 |
| 20260509224504 | 71 | 113 | 0.0 | 3.0 | 0.00 | 0.01 | 0.01 | 74 | 1008.6 |
| 20260509224004 | 71 | 169 | 0.0 | 3.0 | 0.00 | 0.01 | 0.01 | 74 | 1008.6 |
| 20260509223504 | 71 | 179 | 1.0 | 3.0 | 0.00 | 0.01 | 0.01 | 73 | 1008.7 |
| 20260509222504 | 72 | 139 | 0.0 | 2.0 | 0.00 | 0.01 | 0.01 | 73 | 1008.7 |
| 20260509222005 | 72 | 111 | 0.0 | 3.0 | 0.00 | 0.01 | 0.01 | 73 | 1008.8 |
| 20260509221505 | 72 | 145 | 1.0 | 3.0 | 0.00 | 0.01 | 0.01 | 73 | 1008.8 |
| 20260509221005 | 72 | 78 | 0.0 | 3.0 | 0.00 | 0.01 | 0.01 | 73 | 1008.8 |
| 20260509220504 | 72 | 155 | 1.0 | 3.0 | 0.00 | 0.01 | 0.01 | 74 | 1008.9 |
| 20260509220004 | 72 | 163 | 0.0 | 5.0 | 0.00 | 0.01 | 0.01 | 74 | 1009.0 |
| 20260509215504 | 72 | 240 | 0.0 | 5.0 | 0.00 | 0.01 | 0.01 | 73 | 1008.9 |
| 20260509215004 | 73 | 218 | 1.0 | 5.0 | 0.00 | 0.01 | 0.01 | 74 | 1008.8 |
| 20260509214505 | 72 | 152 | 1.0 | 6.0 | 0.00 | 0.01 | 0.01 | 75 | 1008.8 |
| 20260509213504 | 71 | 177 | 1.0 | 5.0 | 0.00 | 0.01 | 0.01 | 75 | 1008.7 |
| 20260509213004 | 71 | 210 | 1.0 | 3.0 | 0.00 | 0.01 | 0.01 | 75 | 1008.8 |
| 20260509212504 | 71 | 173 | 0.0 | 3.0 | 0.00 | 0.01 | 0.01 | 76 | 1008.8 |
| 20260509212004 | 71 | 178 | 1.0 | 3.0 | 0.00 | 0.01 | 0.01 | 75 | 1008.9 |
| 20260509211505 | 71 | 148 | 2.0 | 6.0 | 0.00 | 0.01 | 0.01 | 75 | 1008.8 |
| 20260509211004 | 70 | 163 | 2.0 | 6.0 | 0.00 | 0.01 | 0.01 | 76 | 1008.9 |
| 20260509210504 | 70 | 187 | 1.0 | 7.0 | 0.00 | 0.01 | 0.01 | 77 | 1008.9 |
| 20260509210004 | 70 | 163 | 3.0 | 10.0 | 0.00 | 0.01 | 0.01 | 77 | 1009.0 |
| 20260509205504 | 71 | 182 | 2.0 | 10.0 | 0.00 | 0.01 | 0.01 | 76 | 1008.9 |
| 20260509205005 | 71 | 149 | 3.0 | 12.0 | 0.00 | 0.01 | 0.01 | 76 | 1008.9 |
| 20260509204004 | 72 | 160 | 3.0 | 8.0 | 0.00 | 0.01 | 0.01 | 74 | 1008.9 |
| 20260509203505 | 72 | 189 | 2.0 | 10.0 | 0.00 | 0.01 | 0.01 | 74 | 1008.9 |
| 20260509203004 | 72 | 153 | 3.0 | 10.0 | 0.00 | 0.01 | 0.01 | 76 | 1008.9 |
| 20260509202005 | 72 | 155 | 4.0 | 7.0 | 0.00 | 0.01 | 0.01 | 76 | 1009.3 |
| 20260509201504 | 72 | 157 | 2.0 | 8.0 | 0.00 | 0.01 | 0.01 | 76 | 1009.4 |
| 20260509201005 | 72 | 157 | 3.0 | 8.0 | 0.00 | 0.01 | 0.01 | 75 | 1009.5 |
| 20260509200004 | 72 | 142 | 1.0 | 5.0 | 0.00 | 0.01 | 0.01 | 72 | 1009.6 |
| 20260509195504 | 73 | 173 | 2.0 | 5.0 | 0.00 | 0.01 | 0.01 | 69 | 1009.8 |
| 20260509195004 | 74 | 152 | 2.0 | 8.0 | 0.00 | 0.01 | 0.01 | 71 | 1009.9 |
| 20260509194504 | 73 | 222 | 2.0 | 10.0 | 0.00 | 0.01 | 0.01 | 72 | 1009.8 |
| 20260509194004 | 73 | 175 | 4.0 | 10.0 | 0.00 | 0.01 | 0.01 | 71 | 1009.9 |
| 20260509193004 | 72 | 203 | 2.0 | 10.0 | 0.00 | 0.01 | 0.01 | 75 | 1010.2 |
| 20260509192505 | 71 | 154 | 3.0 | 10.0 | 0.00 | 0.01 | 0.01 | 76 | 1010.2 |
| 20260509192006 | 71 | 204 | 3.0 | 14.0 | 0.00 | 0.01 | 0.01 | 75 | 1010.3 |
| 20260509190504 | 71 | 185 | 3.0 | 8.0 | 0.00 | 0.01 | 0.01 | 75 | 1010.4 |
| 20260509190004 | 71 | 283 | 2.0 | 7.0 | 0.00 | 0.01 | 0.01 | 77 | 1010.4 |
| 20260509185504 | 71 | 145 | 2.0 | 7.0 | 0.00 | 0.01 | 0.01 | 78 | 1010.6 |
| 20260509185005 | 70 | 163 | 2.0 | 7.0 | 0.00 | 0.01 | 0.01 | 80 | 1010.7 |
| 20260509184505 | 69 | 187 | 2.0 | 9.0 | 0.00 | 0.01 | 0.01 | 82 | 1010.7 |
| 20260509184004 | 68 | 159 | 2.0 | 9.0 | 0.01 | 0.01 | 0.01 | 82 | 1010.8 |
| 20260509183505 | 68 | 139 | 2.0 | 7.0 | 0.01 | 0.01 | 0.01 | 83 | 1010.8 |
| 20260509183004 | 68 | 141 | 2.0 | 7.0 | 0.01 | 0.01 | 0.01 | 84 | 1011.0 |
| 20260509182504 | 67 | 164 | 2.0 | 7.0 | 0.01 | 0.01 | 0.01 | 86 | 1011.0 |
| 20260509181504 | 66 | 163 | 2.0 | 6.0 | 0.01 | 0.01 | 0.01 | 87 | 1011.1 |
| 20260509180504 | 65 | 205 | 1.0 | 3.0 | 0.01 | 0.01 | 0.01 | 88 | 1011.2 |
| 20260509180005 | 64 | 172 | 1.0 | 5.0 | 0.01 | 0.01 | 0.01 | 88 | 1011.2 |
| 20260509174505 | 65 | 194 | 1.0 | 5.0 | 0.01 | 0.01 | 0.01 | 87 | 1011.3 |
| 20260509174004 | 65 | 229 | 0.0 | 9.0 | 0.00 | 0.00 | 0.00 | 86 | 1011.3 |
| 20260509173504 | 66 | 190 | 3.0 | 9.0 | 0.00 | 0.00 | 0.00 | 83 | 1011.3 |
| 20260509173004 | 67 | 197 | 2.0 | 8.0 | 0.00 | 0.00 | 0.00 | 82 | 1011.2 |
| 20260509172504 | 68 | 198 | 2.0 | 8.0 | 0.00 | 0.00 | 0.00 | 80 | 1011.2 |
| 20260509172004 | 69 | 214 | 2.0 | 10.0 | 0.00 | 0.00 | 0.00 | 76 | 1011.1 |
| 20260509170004 | 71 | 201 | 5.0 | 12.0 | 0.00 | 0.00 | 0.00 | 71 | 1010.7 |
| 20260509165504 | 71 | 188 | 4.0 | 9.0 | 0.00 | 0.00 | 0.00 | 71 | 1011.1 |
| 20260509165005 | 71 | 166 | 3.0 | 8.0 | 0.00 | 0.00 | 0.00 | 65 | 1011.2 |
| 20260509164504 | 71 | 158 | 3.0 | 7.0 | 0.00 | 0.00 | 0.00 | 58 | 1011.2 |
| 20260509163503 | 72 | 261 | 2.0 | 7.0 | 0.00 | 0.00 | 0.00 | 59 | 1011.3 |
| 20260509163004 | 72 | 171 | 3.0 | 8.0 | 0.00 | 0.00 | 0.00 | 58 | 1011.3 |
| 20260509162504 | 73 | 193 | 3.0 | 8.0 | 0.00 | 0.00 | 0.00 | 56 | 1011.3 |
| 20260509162004 | 73 | 211 | 3.0 | 8.0 | 0.00 | 0.00 | 0.00 | 55 | 1011.1 |
| 20260509161004 | 73 | 179 | 2.0 | 7.0 | 0.00 | 0.00 | 0.00 | 55 | 1011.2 |
| 20260509160504 | 73 | 247 | 2.0 | 7.0 | 0.00 | 0.00 | 0.00 | 57 | 1011.3 |
| 20260509160005 | 73 | 166 | 2.0 | 14.0 | 0.00 | 0.00 | 0.00 | 56 | 1011.3 |
| 20260509155005 | 72 | 216 | 3.0 | 14.0 | 0.00 | 0.00 | 0.00 | 57 | 1011.8 |
| 20260509154505 | 72 | 254 | 3.0 | 7.0 | 0.00 | 0.00 | 0.00 | 57 | 1011.9 |
| 20260509154004 | 72 | 208 | 3.0 | 8.0 | 0.00 | 0.00 | 0.00 | 56 | 1012.1 |